Flag for Germany Weather past 2 weeks in Erkelenz, North Rhine-Westphalia, Germany

Now
41 °F

Passing clouds.


Feels Like: 35 °F
Forecast: 35 / 44 °F
Wind: 10 mph from Southwest

Location: Monchengladbach Airport

Current Time: Mar 3, 2015 at 9:38:23 PM

Latest Report: Mar 3, 2015 at 7:50 PM


Visibility: N/A

Pressure: 30.01 "Hg

Humidity: 87%

Dew point: 37 °F

Location of ErkelenzLocation

Historic Weather in Erkelenz — Graph

°F

Erkelenz temperature yesterday

Maximum temperature yesterday: 48 °F (at 12:50 PM)
Minimum temperature yesterday: 37 °F (at 3:50 PM)
Average temperature yesterday: 43 °F

Past Weeks' High & Low Weather Summary

 TemperatureHumidityPressure
High52 °F (Mar 1, 10:20 AM)100% (Feb 17, 7:50 AM)30.77 "Hg (Feb 17, 7:50 AM)
Low30 °F (Feb 28, 7:20 AM)50% (Feb 28, 4:50 PM)29.45 "Hg (Feb 21, 8:20 AM)
Average42 °F80%29.98 "Hg
* Reported Feb 16 7:20 PM — Mar 3 7:50 PM, Erkelenz, Weather by CustomWeather, © 2015

Note: Actual official high and low records may vary slightly from our data, if they occured in-between our weather recording intervals... More about our weather records

Advertising

Erkelenz weather history for previous 24 hours

 ConditionsComfort  
Time TempWeatherWind HumidityBarometerVisibility
7:50 PM
Tue, Mar 3
41 °FPassing clouds.10 mph87%30.01 "HgN/A
7:20 PM41 °FPassing clouds.8 mph87%30.01 "HgN/A
6:50 PM41 °FPassing clouds.7 mph87%30.01 "HgN/A
6:20 PM41 °FScattered showers. Passing clouds.7 mph87%29.98 "HgN/A
5:50 PM41 °FClear.9 mph87%29.98 "Hg10 mi
5:20 PM41 °FPartly cloudy.12 mph93%29.98 "HgN/A
4:50 PM37 °FSprinkles. Passing clouds.14 mph100%29.98 "Hg5 mi
4:20 PM45 °FScattered showers. Passing clouds.12 mph87%29.98 "Hg5 mi
3:50 PM45 °FPartly cloudy.10 mph87%29.98 "HgN/A
3:20 PM43 °FLight rain. Passing clouds.12 mph87%29.98 "Hg4 mi
2:50 PM45 °FRain showers. Passing clouds.23 mph76%29.98 "Hg3 mi
2:20 PM48 °FSprinkles. Passing clouds.22 mph58%29.95 "Hg5 mi
1:50 PM50 °FPassing clouds.18 mph54%29.95 "HgN/A
1:20 PM48 °FPassing clouds.18 mph58%29.98 "HgN/A
12:50 PM46 °FClear.15 mph62%30.01 "Hg10 mi
12:20 PM46 °FPassing clouds.16 mph62%30.01 "HgN/A
11:50 AM46 °FPassing clouds.17 mph66%30.04 "HgN/A
11:20 AM45 °FClear.15 mph66%30.04 "Hg10 mi
10:50 AM45 °FClear.12 mph66%30.04 "Hg10 mi
10:20 AM43 °FClear.15 mph71%30.07 "Hg10 mi
9:50 AM43 °FClear.14 mph71%30.07 "Hg10 mi
9:20 AM41 °FSunny.14 mph76%30.07 "Hg10 mi
8:50 AM41 °FScattered clouds.12 mph76%30.07 "HgN/A
8:20 AM39 °FPartly sunny.21 mph81%30.04 "HgN/A
7:50 AM39 °FScattered clouds.12 mph81%30.04 "HgN/A
Weather by CustomWeather, © 2015

See weather overviewHow to use our weather pages